Find Starlink 30145

NORAD ID: 57496 Int'l Des: 2023-113 Owner: SPXS Country: US Constellation: starlink operational
LEOCIRCULAR

リアルタイム位置

3D地球を読み込み中...

Starlink 30145について

説明を読み込み中...

次回通過

Passes for default location (London). Set your location on the main map for personalized predictions.

高度履歴

Loading altitude history...

軌道要素

1 57496U 23113B 26130.01312784 -.00000151 00000-0 40457-5 0 9992
2 57496 42.9993 29.7606 0001272 267.3695 92.7011 15.27569149152949
Epoch: May 10, 2026 • Age: 12 hours

現在のステータス

高度 493.9 km
速度 7.62 km/s
衛星直下点 -38.87°S, 147.73°W
打ち上げ日 Aug 7, 2023
運用期間 2.7 years
タイプ internet

技術仕様

分類 Payload
質量 730.00 kg
乾燥質量 700.00 kg
総質量 730.00 kg
長さ 0.30 m
直径 4.10 m
スパン 29.00 m
形状 Box + pan
製造者 SPXS
バスタイプ Starlink V2M
フェーズステータス In Orbit
所有者/国 SPXS/US

Most Searched